Location: Devore Heights
(34.2372°N, 117.4156°W)
Time: 19:31:23
(UTC+00:00)

Explorer 7 - Pass Details

Date: 13 September 2024
Orbit: 459 x 606 km, 50.3° (Epoch: 13 October)

Event Time Altitude Azimuth Distance (km) Brightness Sun altitude
Exits shadow 11:54:23 12° 335° (NNW) 1,506 9.0 -20.5°
Maximum altitude 11:54:32 12° 338° (NNW) 1,504 9.0 -20.5°
Drops below altitude 10° 11:55:59 10° 2° (N) 1,613 9.4 -20.2°
Sets 11:59:20 0° 35° (NE) 2,480 11.0 -19.5°
